アトラス彗星

C/2019 E3 ( ATLAS )

English version
Home page
Updated on May 20, 2019

---------------------------------------------------------------------

・ プロフィール

発見日 2019年3月5日
発見光度 18.4等
発見者 Asteroid Terrestrial-Impact Last Alert System (ATLAS) search program

・ 軌道要素

Epoch 2023 Dec. 2.0 TT = JDT 2460280.5
T 2023 Nov. 14.83253 TT                                 MPCW
q  10.3443304            (2000.0)            P               Q
z  +0.0006723      Peri.  280.47024     +0.15556296     +0.96299453
 +/-0.0004234      Node   347.22081     +0.26471117     -0.25529717
e   0.9930452      Incl.   84.28484     -0.95169752     +0.08639958
From 50 observations 2019 Mar. 1-Apr. 5, mean residual 0".3.

・ 光度変化

        m1 = 2.5 + 5 logΔ + 10.0 log r

---------------------------------------------------------------------

軌道要素はM.P.E.C. 2019-J142に掲載されたものです。
光度グラフはComet for Windowsで作成したものです。

---------------------------------------------------------------------

Copyright(C) Seiichi Yoshida (comet@aerith.net). All rights reserved.